#timestamp,LO_Frequency,Hit 
1499767215.0,286046996.9,N
1499767215.9,286046996.9,N
1499767235.8,286046997.0,N
1499767255.6,286046997.9,N
1499767275.4,286046996.5,N
1499767295.3,286046996.6,N
1499767315.1,286046996.6,N
1499767335.9,286046997.5,N
1499767355.7,286046996.8,N
1499767375.5,286046995.1,N
1499767395.4,286046997.2,N
1499767415.2,286046997.3,N
1499767435.0,286046999.1,N
1499767435.9,286046999.1,N
1499767455.8,286046999.5,N
1499767475.6,286046998.5,N
1499767495.5,286046999.6,N
1499767515.3,286046996.8,N
1499767535.1,286046995.7,N
1499767555.9,286046995.5,N
1499767575.7,286046995.4,N
1499767595.5,286046994.9,N
1499767615.4,286046997.8,N
1499767635.2,286046996.8,N
1499767655.1,286046998.9,N
1499767656.0,286046998.9,N
1499767675.8,286046999.3,N
1499767695.7,286046998.4,N
1499767715.5,286046999.2,N
1499767735.3,286046997.2,N
1499767755.2,286046997.2,N
1499767775.0,286046995.5,N
1499767775.9,286046995.5,N
1499767795.7,286046997.8,N
1499767815.6,286046999.0,N
1499767835.4,286046997.2,N
1499767855.3,286046997.1,N
1499767875.1,286046996.7,N
1499767895.8,286046997.0,N
1499767915.7,286046999.4,N
1499767935.5,286046994.9,N
1499767955.4,286046997.4,N
1499767975.2,286046998.0,N
1499767995.0,286046997.3,N
1499767995.9,286046997.3,N
1499768015.8,286046998.6,N
1499768035.6,286046996.7,N
1499768055.5,286046998.0,N
1499768075.3,286046995.0,N
1499768095.1,286046999.5,N
1499768115.9,286046999.6,N
1499768135.7,286046997.1,N
1499768155.5,286046994.9,N
1499768175.4,286046995.7,N
1499768195.2,286046995.0,N
1499768215.1,286046995.1,N
1499768216.0,286046995.1,N
1499768235.8,286046996.2,N
1499768255.6,286046997.8,N
1499768275.5,286046997.7,N
1499768295.3,286046998.0,N
1499768315.1,286046998.8,N
1499768335.9,286046999.0,N
1499768355.7,286046999.3,N
1499768375.6,286047001.1,N
1499768395.4,286047000.8,N
1499768415.2,286047001.1,N
1499768435.1,286047000.7,N
1499768436.0,286047000.7,N
1499768455.8,286047002.7,N
1499768475.7,286047000.8,N
1499768495.5,286046998.8,N
1499768515.3,286046998.1,N
1499768535.2,286047001.1,N
1499768555.9,286046998.5,N
1499768575.7,286047002.0,N
1499768595.6,286047004.4,N
1499768615.4,286047002.5,N
1499768635.3,286047001.3,N
1499768655.1,286047002.7,N
1499768656.0,286047002.7,N
1499768675.8,286046999.9,N
1499768695.7,286047002.6,N
1499768715.5,286047002.7,N
1499768735.3,286047002.0,N
1499768755.2,286046999.8,N
1499768775.0,286046999.9,N
1499768775.9,286046999.9,N
1499768795.8,286047001.6,N
1499768815.6,286047001.7,N
1499768835.4,286047003.8,N
1499768855.3,286047002.2,N
1499768875.1,286047004.4,N
1499768895.8,286047004.0,N
1499768915.7,286047002.5,N
1499768935.5,286047002.2,N
1499768955.4,286047002.1,N
1499768975.2,286047004.2,N
1499768995.0,286047001.8,N
1499768995.9,286047001.8,N
1499769015.8,286047003.7,N
1499769035.6,286047006.0,N
1499769055.5,286047004.3,N
1499769075.3,286047002.7,N
1499769095.1,286047002.0,N
1499769115.9,286047001.9,N
1499769135.7,286047002.5,N
1499769155.5,286046999.7,N
1499769175.4,286047002.8,N
1499769195.2,286047000.5,N
1499769215.1,286046998.1,N
1499769216.0,286046998.1,N
1499769235.8,286047000.3,N
1499769255.6,286046998.2,N
1499769275.5,286046998.1,N
1499769295.3,286047001.0,N
1499769315.2,286047000.7,N
1499769335.9,286046998.9,N
1499769355.7,286047001.1,N
1499769375.6,286046999.4,N
1499769395.4,286046999.2,N
1499769415.3,286046998.1,N
1499769435.1,286047000.2,N
1499769436.0,286047000.2,N
1499769455.8,286047001.2,N
1499769475.7,286047000.4,N
1499769495.5,286047000.8,N
1499769515.4,286046998.5,N
1499769535.2,286047000.5,N
1499769555.0,286047000.3,N
1499769555.9,286047000.3,N
1499769575.8,286047000.2,N
1499769595.6,286046998.5,N
1499769615.4,286047001.0,N
1499769635.3,286047001.2,N
1499769655.1,286047002.2,N
1499769675.9,286046999.9,N
1499769695.7,286046998.1,N
1499769715.5,286047000.3,N
1499769735.4,286047000.5,N
1499769755.2,286047000.1,N
1499769775.0,286047002.5,N
1499769775.9,286047002.5,N
1499769795.8,286047003.9,N
1499769815.6,286047001.4,N
1499769835.5,286047001.9,N
1499769855.3,286047002.6,N
1499769875.1,286047002.0,N
1499769895.9,286047001.8,N
1499769915.7,286047002.8,N
1499769935.5,286047000.0,N
1499769955.4,286047002.7,N
1499769975.2,286047001.0,N
1499769995.1,286047001.1,N
1499769996.0,286047001.1,N
1499770015.8,286046999.0,N
1499770035.6,286047000.1,N
1499770055.5,286046999.7,N
1499770075.3,286047000.5,N
1499770095.2,286047001.4,N
1499770115.9,286047002.0,N
1499770135.7,286047001.8,N
1499770155.6,286047002.3,N
1499770175.4,286047002.4,N
1499770195.2,286046999.8,N
1499770215.1,286047002.7,N
1499770216.0,286047002.7,N
1499770235.8,286047002.0,N
1499770255.7,286047001.3,N
1499770275.5,286047002.1,N
1499770295.3,286047002.9,N
1499770315.2,286047004.5,N
1499770335.0,286047007.3,N
1499770335.9,286047007.3,N
1499770355.8,286047003.1,N
1499770375.6,286047006.0,N
1499770395.4,286047003.3,N
1499770415.3,286047003.0,N
1499770435.1,286047003.5,N
1499770455.8,286047004.3,N
1499770475.7,286047004.0,N
1499770495.5,286047004.3,N
1499770515.4,286046999.7,N
1499770535.2,286047002.3,N
1499770555.0,286047001.9,N
1499770555.9,286047001.9,N
1499770575.8,286047005.2,N
1499770595.6,286047003.6,N
1499770615.4,286047006.0,N
1499770635.3,286047006.0,N
1499770655.1,286047003.2,N
1499770675.9,286047003.3,N
1499770695.7,286047003.2,N
1499770715.5,286047005.2,N
1499770735.4,286047003.6,N
1499770755.2,286047001.9,N
1499770775.1,286047001.7,N
1499770776.0,286047001.7,N
1499770795.8,286047001.4,N
